TimeMST,TemperatureF,Dew PointF,Humidity,Sea Level PressureIn,VisibilityMPH,Wind Direction,Wind SpeedMPH,Gust SpeedMPH,PrecipitationIn,Events,Conditions,WindDirDegrees,DateUTC
12:39 AM,39.2,37.4,93,29.92,6.0,NNE,6.9,-,0.02,Rain,Rain,20,2013-03-04 07:39:00
12:53 AM,39.0,37.0,93,29.83,6.0,NE,6.9,-,0.05,Rain,Light Rain,40,2013-03-04 07:53:00
1:03 AM,37.4,37.4,100,29.91,5.0,NE,3.5,-,0.02,Rain,Rain,50,2013-03-04 08:03:00
1:53 AM,37.9,37.0,97,29.83,10.0,Calm,Calm,-,0.03,Rain,Light Rain,0,2013-03-04 08:53:00
2:53 AM,37.9,37.0,97,29.81,10.0,Calm,Calm,-,0.01,Rain,Light Rain,0,2013-03-04 09:53:00
3:02 AM,37.4,35.6,93,29.90,9.0,NNW,6.9,-,0.01,,Overcast,340,2013-03-04 10:02:00
3:53 AM,37.0,35.1,93,29.81,10.0,NE,5.8,-,0.02,,Overcast,40,2013-03-04 10:53:00
4:32 AM,35.6,33.8,93,29.91,10.0,NNE,6.9,-,0.00,,Overcast,20,2013-03-04 11:32:00
4:50 AM,35.6,33.8,93,29.92,10.0,NNE,8.1,-,0.00,,Overcast,30,2013-03-04 11:50:00
4:53 AM,35.1,33.1,92,29.84,8.0,NNE,9.2,-,0.00,Rain,Light Rain,30,2013-03-04 11:53:00
5:26 AM,35.6,33.8,93,29.93,10.0,Calm,Calm,-,0.01,,Overcast,0,2013-03-04 12:26:00
5:39 AM,35.6,33.8,93,29.94,10.0,NW,5.8,-,0.01,,Overcast,320,2013-03-04 12:39:00
5:46 AM,35.6,33.8,93,29.94,10.0,NNW,4.6,-,0.01,,Overcast,330,2013-03-04 12:46:00
5:53 AM,35.1,34.0,96,29.88,10.0,NNW,4.6,-,0.01,,Overcast,340,2013-03-04 12:53:00
6:53 AM,35.1,34.0,96,29.90,10.0,Calm,Calm,-,N/A,,Overcast,0,2013-03-04 13:53:00
7:53 AM,35.1,34.0,96,29.93,10.0,NNW,4.6,-,N/A,,Overcast,340,2013-03-04 14:53:00
8:38 AM,37.4,35.6,93,30.01,10.0,North,5.8,-,N/A,,Overcast,350,2013-03-04 15:38:00
8:53 AM,37.0,35.1,93,29.97,10.0,North,9.2,-,N/A,,Overcast,10,2013-03-04 15:53:00
9:53 AM,37.0,35.1,93,29.99,10.0,North,11.5,-,N/A,,Overcast,360,2013-03-04 16:53:00
10:17 AM,37.4,35.6,93,30.04,10.0,North,10.4,-,N/A,,Overcast,360,2013-03-04 17:17:00
10:25 AM,37.4,35.6,93,30.04,10.0,North,11.5,-,N/A,,Overcast,10,2013-03-04 17:25:00
10:46 AM,39.2,35.6,87,30.05,10.0,North,12.7,-,N/A,,Overcast,350,2013-03-04 17:46:00
10:53 AM,41.0,37.9,89,30.01,10.0,North,13.8,-,N/A,,Overcast,350,2013-03-04 17:53:00
11:53 AM,43.0,36.0,76,30.02,10.0,North,15.0,19.6,N/A,,Mostly Cloudy,10,2013-03-04 18:53:00
12:53 PM,43.0,34.0,71,30.04,10.0,NNE,16.1,19.6,N/A,,Mostly Cloudy,30,2013-03-04 19:53:00
1:41 PM,42.8,30.2,61,30.08,10.0,North,12.7,23.0,N/A,,Overcast,10,2013-03-04 20:41:00
1:53 PM,42.1,32.0,67,30.05,10.0,NNE,15.0,18.4,N/A,,Overcast,30,2013-03-04 20:53:00
2:33 PM,42.8,28.4,57,30.10,10.0,NNE,12.7,20.7,N/A,,Overcast,20,2013-03-04 21:33:00
2:53 PM,43.0,30.9,62,30.06,10.0,NE,11.5,-,N/A,,Mostly Cloudy,50,2013-03-04 21:53:00
3:53 PM,43.0,28.0,56,30.08,10.0,NNE,6.9,-,N/A,,Mostly Cloudy,30,2013-03-04 22:53:00
4:53 PM,42.1,27.0,55,30.10,10.0,NNE,8.1,-,N/A,,Scattered Clouds,20,2013-03-04 23:53:00
5:53 PM,41.0,26.1,55,30.11,10.0,NNE,9.2,-,N/A,,Clear,20,2013-03-05 00:53:00
6:53 PM,36.0,25.0,64,30.16,10.0,North,6.9,-,N/A,,Clear,360,2013-03-05 01:53:00
7:53 PM,32.0,24.1,73,30.18,10.0,North,6.9,-,N/A,,Clear,360,2013-03-05 02:53:00
8:53 PM,30.0,24.1,79,30.19,10.0,ESE,3.5,-,N/A,,Clear,110,2013-03-05 03:53:00
9:53 PM,26.1,23.0,88,30.21,10.0,WSW,4.6,-,N/A,,Clear,250,2013-03-05 04:53:00
10:53 PM,27.0,23.0,85,30.20,10.0,South,6.9,-,N/A,,Clear,170,2013-03-05 05:53:00